This is the latest recevied weather packets stored in our database for station/object K9YK-13. If no packets are shown the sender has not sent any weather packets the latest 10 day(s).
| Time | Temp. | Humidity | Pressure | Rain* | Wind** | Luminosity | Snow |
|---|---|---|---|---|---|---|---|
| 1777590072 | 15.56° C | 50% | 0 hPa | 0 mm | - | - | - |
| 1777589772 | 15.56° C | 50% | 0 hPa | 0 mm | - | - | - |
| 1777589472 | 16.11° C | 50% | 0 hPa | 0 mm | - | - | - |
| 1777589172 | 16.11° C | 49% | 0 hPa | 0 mm | - | - | - |
| 1777588872 | 16.11° C | 51% | 0 hPa | 0 mm | - | - | - |
| 1777588572 | 16.11° C | 49% | 0 hPa | 0 mm | - | - | - |
| 1777588272 | 15.56° C | 48% | 0 hPa | 0 mm | - | - | - |
| 1777587972 | 15.56° C | 48% | 0 hPa | 0 mm | - | - | - |
| 1777587672 | 16.67° C | 48% | 0 hPa | 0 mm | - | - | - |
| 1777587372 | 15.56° C | 49% | 0 hPa | 0 mm | - | - | - |
| 1777587072 | 16.11° C | 48% | 0 hPa | 0 mm | - | - | - |
| 1777586772 | 16.67° C | 50% | 0 hPa | 0 mm | - | - | - |
| 1777586472 | 15.56° C | 49% | 0 hPa | 0 mm | - | - | - |
| 1777586172 | 15.56° C | 49% | 0 hPa | 0 mm | - | - | - |
| 1777585872 | 16.11° C | 51% | 0 hPa | 0 mm | - | - | - |
| 1777585572 | 15.56° C | 54% | 0 hPa | 0 mm | - | - | - |
| 1777585272 | 15.56° C | 53% | 0 hPa | 0 mm | - | - | - |
| 1777584972 | 15.56° C | 52% | 0 hPa | 0 mm | - | - | - |
| 1777584672 | 16.11° C | 50% | 0 hPa | 0 mm | - | - | - |
| 1777584373 | 16.67° C | 48% | 0 hPa | 0 mm | - | - | - |
| 1777584072 | 16.11° C | 50% | 0 hPa | 0 mm | - | - | - |
| 1777583772 | 16.11° C | 50% | 0 hPa | 0 mm | - | - | - |
| 1777583472 | 17.22° C | 49% | 0 hPa | 0 mm | - | - | - |
| 1777583172 | 17.78° C | 51% | 0 hPa | 0 mm | - | - | - |
| 1777582872 | 17.78° C | 52% | 0 hPa | 0 mm | - | - | - |
* Rain latest hour (hover to see other rain measurements)
** Current wind speed in m/s (hover to see current wind gust speed)